Location: Unspecified
(0.0000°N, 0.0000°E)
Time: 14:52:08
(UTC+00:00)

Explorer 11/Cluster Stage 4 - Visible Passes

Search period start: 22 December 2014 00:00
Search period end: 01 January 2015 00:00
Orbit: 468 x 1278 km, 28.8° (Epoch: 22 December)

Date Brightness Start Highest point End Pass type
(mag) Time Alt. Az. Time Alt. Az. Time Alt. Az.
22 Dec 7.2 03:52:32 37° SE 03:52:32 37° SE 03:55:19 10° ESE visible
22 Dec 9.1 18:31:09 10° NW 18:33:37 12° NNW 18:35:57 10° N visible
23 Dec 7.8 03:45:38 25° SE 03:45:38 25° SE 03:47:40 10° SE visible
23 Dec 8.5 05:31:32 10° SW 05:32:38 11° SSW 05:33:48 10° S visible
23 Dec 9.4 18:25:42 10° NNW 18:26:09 10° NNW 18:26:37 10° NNW visible
24 Dec 8.3 03:38:42 17° SSE 03:38:42 17° SSE 03:39:56 10° SE visible
25 Dec 8.8 03:31:44 12° SSE 03:31:44 12° SSE 03:32:05 10° SSE visible
